When you browse on this site, cookies collect data to enhance your experience and personalize the content and advertising you see.
Visit our Privacy Policy to learn more. By continuing to use the site, you agree to this use of cookies and data.
  • Em Portugal
  • Lista de países
  • Para 7 dias
  • Temperatura da água
  • Mapas de satélite
  • Mapa do tempo
  • Widgets de tempo
  • user-avatar
    Iniciar Sessão

    Previsão horária em Barisal

    Hoje, 24 Julho, Quarta-feira

    Tempo Temperatura Precipitação Vento Pressão Humidade
    00:00 +30°C° 0 mm 1 m/s 752 mmHg 86%
    01:00 +30°C° 0.8 mm 2 m/s 751 mmHg 86%
    02:00 +30°C° 0.8 mm 2 m/s 751 mmHg 85%
    03:00 +30°C° 0.8 mm 3 m/s 750 mmHg 85%
    04:00 +30°C° 0.9 mm 2 m/s 750 mmHg 85%
    05:00 +30°C° 0.9 mm 2 m/s 750 mmHg 85%
    06:00 +30°C° 0 mm 1 m/s 751 mmHg 87%
    07:00 +31°C° 1.5 mm 2 m/s 751 mmHg 81%
    08:00 +33°C° 1.5 mm 3 m/s 751 mmHg 76%
    09:00 +34°C° 1.5 mm 4 m/s 751 mmHg 70%
    10:00 +34°C° 1 mm 4 m/s 751 mmHg 68%
    11:00 +35°C° 1 mm 5 m/s 751 mmHg 66%
    12:00 +35°C° 1 mm 5 m/s 751 mmHg 64%
    13:00 +35°C° 1.1 mm 5 m/s 750 mmHg 64%
    14:00 +35°C° 1.1 mm 5 m/s 750 mmHg 64%
    15:00 +35°C° 1.1 mm 5 m/s 750 mmHg 65%
    16:00 +34°C° 0.4 mm 5 m/s 750 mmHg 67%
    17:00 +34°C° 0.4 mm 4 m/s 750 mmHg 69%
    18:00 +33°C° 0.4 mm 4 m/s 749 mmHg 71%
    19:00 +33°C° 0.1 mm 3 m/s 750 mmHg 75%
    20:00 +31°C° 0.1 mm 3 m/s 751 mmHg 78%
    21:00 +30°C° 0.1 mm 3 m/s 752 mmHg 82%
    22:00 +30°C° 0.2 mm 3 m/s 751 mmHg 82%
    23:00 +30°C° 0.2 mm 2 m/s 751 mmHg 82%

    Amanhã, 25 Julho, Quinta-feira

    Tempo Temperatura Precipitação Vento Pressão Humidade
    00:00 +30°C° 0.2 mm 2 m/s 751 mmHg 83%
    01:00 +30°C° 0 mm 2 m/s 751 mmHg 83%
    02:00 +30°C° 0 mm 2 m/s 751 mmHg 84%
    03:00 +30°C° 0 mm 2 m/s 750 mmHg 84%
    04:00 +30°C° 0.2 mm 2 m/s 750 mmHg 85%
    05:00 +30°C° 0.2 mm 2 m/s 751 mmHg 86%
    06:00 +30°C° 0.2 mm 2 m/s 751 mmHg 86%
    07:00 +31°C° 1.2 mm 2 m/s 751 mmHg 80%
    08:00 +33°C° 1.2 mm 3 m/s 751 mmHg 74%
    09:00 +35°C° 1.2 mm 3 m/s 752 mmHg 68%
    10:00 +35°C° 1.9 mm 3 m/s 751 mmHg 66%
    11:00 +35°C° 1.9 mm 3 m/s 751 mmHg 64%
    12:00 +36°C° 1.9 mm 3 m/s 751 mmHg 62%
    13:00 +36°C° 1.9 mm 4 m/s 750 mmHg 64%
    14:00 +35°C° 1.9 mm 5 m/s 750 mmHg 66%
    15:00 +35°C° 1.9 mm 5 m/s 750 mmHg 68%
    16:00 +34°C° 1.9 mm 5 m/s 749 mmHg 72%
    17:00 +33°C° 1.9 mm 5 m/s 749 mmHg 75%
    18:00 +32°C° 1.9 mm 4 m/s 749 mmHg 78%
    19:00 +32°C° 1.4 mm 4 m/s 750 mmHg 80%
    20:00 +30°C° 1.4 mm 5 m/s 750 mmHg 82%
    21:00 +30°C° 1.4 mm 5 m/s 751 mmHg 84%
    22:00 +30°C° 0.8 mm 4 m/s 751 mmHg 85%
    23:00 +30°C° 0.8 mm 3 m/s 751 mmHg 86%

    Depois de amanhã, 26 Julho, Sexta-feira

    Tempo Temperatura Precipitação Vento Pressão Humidade
    00:00 +30°C° 0.8 mm 3 m/s 750 mmHg 87%
    01:00 +29°C° 0.9 mm 2 m/s 750 mmHg 87%
    02:00 +29°C° 0.9 mm 2 m/s 750 mmHg 88%
    03:00 +29°C° 0.9 mm 1 m/s 749 mmHg 88%
    04:00 +29°C° 1.3 mm 1 m/s 749 mmHg 88%
    05:00 +29°C° 1.3 mm 1 m/s 749 mmHg 88%
    06:00 +29°C° 1.3 mm 2 m/s 749 mmHg 88%
    07:00 +29°C° 1 mm 2 m/s 749 mmHg 86%
    08:00 +30°C° 1 mm 1 m/s 750 mmHg 85%
    09:00 +30°C° 1 mm 1 m/s 750 mmHg 83%
    10:00 +30°C° 0.8 mm 2 m/s 750 mmHg 81%
    11:00 +31°C° 0.8 mm 2 m/s 750 mmHg 80%
    12:00 +31°C° 0.8 mm 2 m/s 749 mmHg 78%
    13:00 +31°C° 0.4 mm 2 m/s 749 mmHg 78%
    14:00 +31°C° 0.4 mm 3 m/s 748 mmHg 78%
    15:00 +31°C° 0.4 mm 3 m/s 748 mmHg 78%
    16:00 +31°C° 0.2 mm 3 m/s 748 mmHg 80%
    17:00 +30°C° 0.2 mm 4 m/s 748 mmHg 82%
    18:00 +30°C° 0.2 mm 4 m/s 748 mmHg 83%
    19:00 +30°C° 1.5 mm 4 m/s 748 mmHg 85%
    20:00 +29°C° 1.5 mm 5 m/s 749 mmHg 87%
    21:00 +29°C° 1.5 mm 5 m/s 749 mmHg 88%
    22:00 +29°C° 1.3 mm 5 m/s 749 mmHg 89%
    23:00 +29°C° 1.3 mm 5 m/s 749 mmHg 89%

    27 Julho, Sábado

    Tempo Temperatura Precipitação Vento Pressão Humidade
    00:00 +29°C° 1.3 mm 5 m/s 749 mmHg 90%
    01:00 +29°C° 1.8 mm 6 m/s 749 mmHg 90%
    02:00 +29°C° 1.8 mm 6 m/s 748 mmHg 89%
    03:00 +29°C° 1.8 mm 6 m/s 748 mmHg 89%
    04:00 +29°C° 1.4 mm 6 m/s 748 mmHg 89%
    05:00 +29°C° 1.4 mm 6 m/s 748 mmHg 88%
    06:00 +29°C° 1.4 mm 6 m/s 748 mmHg 87%
    07:00 +30°C° 1.1 mm 6 m/s 748 mmHg 84%
    08:00 +32°C° 1.1 mm 7 m/s 749 mmHg 81%
    09:00 +32°C° 1.1 mm 7 m/s 749 mmHg 77%
    10:00 +33°C° 1.3 mm 8 m/s 749 mmHg 75%
    11:00 +34°C° 1.3 mm 8 m/s 749 mmHg 73%
    12:00 +34°C° 1.3 mm 8 m/s 749 mmHg 71%
    13:00 +34°C° 1 mm 8 m/s 748 mmHg 71%
    14:00 +34°C° 1 mm 9 m/s 748 mmHg 72%
    15:00 +34°C° 1 mm 9 m/s 747 mmHg 72%
    16:00 +33°C° 0.4 mm 9 m/s 747 mmHg 75%
    17:00 +32°C° 0.4 mm 9 m/s 747 mmHg 77%
    18:00 +32°C° 0.4 mm 8 m/s 747 mmHg 79%
    19:00 +31°C° 0.1 mm 8 m/s 748 mmHg 80%
    20:00 +31°C° 0.1 mm 8 m/s 749 mmHg 81%
    21:00 +31°C° 0.1 mm 8 m/s 749 mmHg 81%
    22:00 +31°C° 0.2 mm 8 m/s 749 mmHg 82%
    23:00 +30°C° 0.2 mm 7 m/s 749 mmHg 83%

    28 Julho, Domingo

    Tempo Temperatura Precipitação Vento Pressão Humidade
    00:00 +30°C° 0.2 mm 7 m/s 749 mmHg 84%
    01:00 +30°C° 1.5 mm 7 m/s 749 mmHg 84%
    02:00 +29°C° 1.5 mm 7 m/s 749 mmHg 84%
    03:00 +29°C° 1.5 mm 6 m/s 749 mmHg 85%
    04:00 +29°C° 0.7 mm 6 m/s 749 mmHg 85%
    05:00 +29°C° 0.7 mm 5 m/s 750 mmHg 85%
    06:00 +29°C° 0.7 mm 5 m/s 750 mmHg 86%
    07:00 +30°C° 1.2 mm 6 m/s 750 mmHg 81%
    08:00 +32°C° 1.2 mm 6 m/s 751 mmHg 77%
    09:00 +33°C° 1.2 mm 7 m/s 751 mmHg 73%
    10:00 +34°C° 0.9 mm 7 m/s 751 mmHg 72%
    11:00 +34°C° 0.9 mm 7 m/s 751 mmHg 70%
    12:00 +34°C° 0.9 mm 7 m/s 751 mmHg 69%
    13:00 +34°C° 1.1 mm 7 m/s 751 mmHg 70%
    14:00 +34°C° 1.1 mm 7 m/s 750 mmHg 70%
    15:00 +34°C° 1.1 mm 7 m/s 750 mmHg 71%
    16:00 +33°C° 0.5 mm 7 m/s 750 mmHg 73%
    17:00 +32°C° 0.5 mm 6 m/s 750 mmHg 76%
    18:00 +32°C° 0.5 mm 6 m/s 750 mmHg 79%
    19:00 +30°C° 0.1 mm 5 m/s 751 mmHg 80%
    20:00 +30°C° 0.1 mm 5 m/s 752 mmHg 82%
    21:00 +30°C° 0.1 mm 4 m/s 752 mmHg 84%
    22:00 +30°C° 0.7 mm 4 m/s 752 mmHg 85%
    23:00 +29°C° 0.7 mm 4 m/s 752 mmHg 86%

    29 Julho, Segunda-feira

    Tempo Temperatura Precipitação Vento Pressão Humidade
    00:00 +29°C° 0.7 mm 4 m/s 752 mmHg 87%
    01:00 +29°C° 2.8 mm 4 m/s 752 mmHg 86%
    02:00 +29°C° 2.8 mm 4 m/s 751 mmHg 86%
    03:00 +29°C° 2.8 mm 4 m/s 751 mmHg 86%
    04:00 +29°C° 2.6 mm 3 m/s 751 mmHg 86%
    05:00 +29°C° 2.6 mm 3 m/s 751 mmHg 87%
    06:00 +29°C° 2.6 mm 3 m/s 751 mmHg 87%
    07:00 +30°C° 1.6 mm 3 m/s 751 mmHg 82%
    08:00 +32°C° 1.6 mm 4 m/s 752 mmHg 77%
    09:00 +33°C° 1.6 mm 4 m/s 752 mmHg 72%
    10:00 +34°C° 0.3 mm 4 m/s 752 mmHg 70%
    11:00 +34°C° 0.3 mm 5 m/s 752 mmHg 68%
    12:00 +35°C° 0.3 mm 5 m/s 752 mmHg 66%
    13:00 +35°C° 0.2 mm 5 m/s 751 mmHg 66%
    14:00 +35°C° 0.2 mm 5 m/s 750 mmHg 66%
    15:00 +35°C° 0.2 mm 5 m/s 750 mmHg 66%
    16:00 +34°C° 0 mm 5 m/s 750 mmHg 69%
    17:00 +33°C° 0 mm 5 m/s 750 mmHg 71%
    18:00 +32°C° 0 mm 5 m/s 750 mmHg 74%
    19:00 +32°C° 0 mm 4 m/s 750 mmHg 77%
    20:00 +32°C° 0 mm 4 m/s 751 mmHg 79%
    21:00 +30°C° 0 mm 4 m/s 751 mmHg 82%
    22:00 +30°C° 0 mm 3 m/s 751 mmHg 83%
    23:00 +30°C° 0 mm 3 m/s 751 mmHg 84%
    Mostrar mais